STARLINK-36868, 68120

Orbit data source: Space-Track

STARLINK-36868, 68120 is a payload satellite owned by SpaceX/Seattle (US) in SSO that was launched on Sun, 08 Mar 2026 UTC via an FALCON 9 launch vehicle from the Air Force Western Test Range (AFWTR). Payload-class satellites include a variety of spacecraft equipped with specific instruments for various scientific and technological missions. These include communications satellites like Starlink; space stations such as the ISS; scientific satellites like the Hubble; Earth observation satellites from companies like Planet Labs, Umbra, and HawkEye 360; GPS; miniature CubeSats for education and research; and military/defense satellites.

Loading next visibility...
Identifier
68120, 2026-044V
Orbit
SSO
Country
Flag of USUS
Related business
Manufacturer
SpaceX/Seattle
Mission
Operational Commercial Communications
Bus & Motor
STARLINK V2MO, Unknown motor
Mass
575 kg wet, ~530 kg dry
Launch date (UTC)
2026-03-08 (6 months ago)
Launch vehicle
FALCON 9
Launch site
Air Force Western Test Range (AFWTR)
Object type
Payload
Rocket body
Debris
Shape & HBR
Box + 1 Pan, 17.7 m
Radar Cross Section
41.120 m², Large (>1 m²)

Expand to show TLE details & history
Last TLE update: 13 hours ago

TLE from 13 hours ago
0 STARLINK-36868
1 68120U 26044V   26246.88070492  .00017856  00000-0  55415-3 0  9991
2 68120  97.2844 206.1069 0002060  89.0689 271.0790 15.33441970 28895
Epoch: 2026-09-03T21:08Z
TLE epoch observation values (Epoch: 2026-09-03T21:08:12.905Z)
Latitude
0.00003°
Longitude
-93.9594°
Altitude
468.638 km
Speed
7.632 km/s
True Right ascension
13h 44m 25s
True Declination
0° 00' 00"
Sunlit
Object was in daylight at epoch
Visualization orbit readout
Latitude
Unknown
Longitude
Unknown
Altitude
Unknown
Speed
Unknown
Apparent Right ascension
Unknown
Apparent Declination
Unknown
Sunlit
N/A
Visualization observer readout
Local Sidereal Time
01:44:32
Azimuth
Unknown
Elevation
Unknown
Doppler factor
Unknown
Orbital elements
Apogee altitude
463.904 km
Perigee altitude
461.086 km
Semi-major axis
6,840.632 km
Eccentricity
0.00021
Inclination
97.2844°
RAAN
206.1069°
Arg. of periapsis
89.0689°
True anomaly
271.0554°
Mean anomaly
271.079°
Eccentric anomaly
271.0672°
Mean motion
3.83618 °/min
Orbital period
93.84 mins
BSTAR
0.00055415
Loading maneuver chart data...
Computing Atmospheric mass density...
Loading historical data...
Loading historical data...
Loading historical data...
Loading historical data...
Loading historical data...
Loading historical data...
Loading historical data...

Documentation

Showing up to 5 results
|